This is the latest recevied weather packets stored in our database for station/object N6WDO. If no packets are shown the sender has not sent any weather packets the latest 10 day(s).
| Time | Temp. | Humidity | Pressure | Rain* | Wind** | Luminosity | Snow |
|---|---|---|---|---|---|---|---|
| 1777530024 | 11.11° C | 84% | 1017.3 hPa | 0 mm | - | 0 W/m² | - |
| 1777529722 | 11.67° C | 83% | 1017.1 hPa | 0 mm | - | 0 W/m² | - |
| 1777529418 | 11.67° C | 83% | 1017.1 hPa | 0 mm | - | 0 W/m² | - |
| 1777529115 | 11.11° C | 85% | 1017.1 hPa | 0 mm | - | 0 W/m² | - |
| 1777528811 | 11.11° C | 84% | 1017.2 hPa | 0 mm | - | 0 W/m² | - |
| 1777528508 | 11.11° C | 84% | 1017 hPa | 0 mm | - | 0 W/m² | - |
| 1777528206 | 11.11° C | 84% | 1017.3 hPa | 0 mm | - | 0 W/m² | - |
| 1777527903 | 11.67° C | 84% | 1017.3 hPa | 0 mm | - | 0 W/m² | - |
| 1777527599 | 11.67° C | 83% | 1017 hPa | 0 mm | - | 0 W/m² | - |
| 1777527294 | 11.67° C | 85% | 1017.3 hPa | 0 mm | - | 0 W/m² | - |
| 1777526990 | 11.67° C | 84% | 1017.3 hPa | 0 mm | - | 0 W/m² | - |
| 1777526686 | 11.67° C | 83% | 1017.2 hPa | 0 mm | - | 0 W/m² | - |
| 1777526381 | 11.67° C | 83% | 1017.2 hPa | 0 mm | - | 0 W/m² | - |
| 1777526076 | 11.67° C | 83% | 1017.5 hPa | 0 mm | - | 0 W/m² | - |
| 1777525773 | 11.67° C | 83% | 1017.3 hPa | 0 mm | - | 0 W/m² | - |
| 1777525470 | 11.67° C | 81% | 1017.1 hPa | 0 mm | - | 0 W/m² | - |
| 1777525166 | 12.22° C | 80% | 1017.3 hPa | 0 mm | - | 0 W/m² | - |
| 1777524863 | 12.22° C | 79% | 1017.1 hPa | 0 mm | - | 0 W/m² | - |
| 1777524561 | 12.78° C | 79% | 1017.1 hPa | 0 mm | - | 0 W/m² | - |
| 1777524258 | 12.78° C | 78% | 1017 hPa | 0 mm | - | 0 W/m² | - |
| 1777523955 | 12.78° C | 77% | 1017.1 hPa | 0 mm | - | 0 W/m² | - |
| 1777523651 | 13.33° C | 78% | 1017.1 hPa | 0 mm | - | 0 W/m² | - |
| 1777523347 | 13.33° C | 77% | 1017 hPa | 0 mm | - | 0 W/m² | - |
| 1777523043 | 12.78° C | 79% | 1017.1 hPa | 0 mm | - | 0 W/m² | - |
| 1777522740 | 13.33° C | 78% | 1017.2 hPa | 0 mm | - | 0 W/m² | - |
* Rain latest hour (hover to see other rain measurements)
** Current wind speed in m/s (hover to see current wind gust speed)